Overview Statistics Trail Chart Weather Telemetry Raw packets
 

This is the latest recevied weather packets stored in our database for station/object KC2GYU. If no packets are shown the sender has not sent any weather packets the latest 10 day(s).

<< 63 64 65 66 67 68 69 >>
Time Temp. Humidity Pressure Rain* Wind** Luminosity Snow
1777589629 13.89° C 90% 1008.6 hPa 0 mm - 43 W/m² -
1777589326 14.44° C 89% 1008.5 hPa 0 mm - 47 W/m² -
1777589024 14.44° C 89% 1008.4 hPa 0 mm - 51 W/m² -
1777588720 14.44° C 88% 1008.6 hPa 0 mm - 52 W/m² -
1777588416 14.44° C 88% 1008.5 hPa 0 mm - 52 W/m² -
1777588112 15° C 87% 1008.7 hPa 0 mm - 65 W/m² -
1777587808 15° C 87% 1008.8 hPa 0 mm - 69 W/m² -
1777587507 15° C 85% 1008.8 hPa 0 mm - 62 W/m² -
1777587204 15.56° C 85% 1008.5 hPa 0 mm - 90 W/m² -
1777586898 15.56° C 85% 1008.6 hPa 0 mm - 81 W/m² -
1777586595 15.56° C 85% 1008.9 hPa 0 mm - 72 W/m² -
1777586290 15.56° C 84% 1008.6 hPa 0 mm - 92 W/m² -
1777585989 15.56° C 84% 1008.5 hPa 0 mm - 183 W/m² -
1777585683 15° C 85% 1008.5 hPa 0 mm - 99 W/m² -
1777585379 14.44° C 88% 1008.7 hPa 0 mm - 123 W/m² -
1777585079 14.44° C 88% 1008.6 hPa 0 mm - 55 W/m² -
1777584775 14.44° C 88% 1008.3 hPa 0 mm - 27 W/m² -
1777584474 14.44° C 87% 1008.2 hPa 0 mm - 40 W/m² -
1777584170 15° C 86% 1008.2 hPa 0 mm - 55 W/m² -
1777583869 15.56° C 85% 1008.2 hPa 0 mm - 72 W/m² -
1777583565 15.56° C 84% 1008.2 hPa 0 mm - 128 W/m² -
1777583264 15.56° C 84% 1008.1 hPa 0 mm - 468 W/m² -
1777582963 15° C 84% 1008 hPa 0 mm - 111 W/m² -
1777582662 15.56° C 82% 1008 hPa 0 mm - 111 W/m² -
1777582357 16.67° C 79% 1007.9 hPa 0 mm - 116 W/m² -

* Rain latest hour (hover to see other rain measurements)
** Current wind speed in m/s (hover to see current wind gust speed)